When you browse on this site, cookies collect data to enhance your experience and personalize the content and advertising you see.
Visit our Privacy Policy to learn more. By continuing to use the site, you agree to this use of cookies and data.
  • In Hungary
  • List of Countries
  • For 7 days
  • Water Temperature
  • Weather Map
  • News
  • Weather Widgets
  • user-avatar
    Login

    Hourly Weather Lakisy

    Today, 20 January, Monday

    Time Temperature Precipitation Wind Pressure Humidity
    00:00 -1°C° 0 mm 3 mps 757 mmHg 92%
    01:00 -2°C° 0 mm 4 mps 757 mmHg 91%
    02:00 -1°C° 0 mm 4 mps 757 mmHg 93%
    03:00 -1°C° 0 mm 4 mps 757 mmHg 93%
    04:00 -2°C° 0 mm 4 mps 757 mmHg 93%
    05:00 -2°C° 0 mm 4 mps 757 mmHg 93%
    06:00 -2°C° 0 mm 4 mps 757 mmHg 93%
    07:00 -2°C° 0 mm 5 mps 757 mmHg 93%
    08:00 -2°C° 0 mm 5 mps 757 mmHg 93%
    09:00 -1°C° 0 mm 5 mps 757 mmHg 90%
    10:00 -1°C° 0 mm 5 mps 757 mmHg 87%
    11:00 -1°C° 0 mm 5 mps 757 mmHg 84%
    12:00 -1°C° 0 mm 5 mps 757 mmHg 84%
    13:00 -1°C° 0 mm 5 mps 757 mmHg 84%
    14:00 -1°C° 0 mm 5 mps 756 mmHg 85%
    15:00 -1°C° 0 mm 5 mps 756 mmHg 85%
    16:00 -2°C° 0 mm 5 mps 756 mmHg 85%
    17:00 -2°C° 0 mm 5 mps 756 mmHg 86%
    18:00 -2°C° 0 mm 5 mps 756 mmHg 86%
    19:00 -2°C° 0 mm 5 mps 755 mmHg 87%
    20:00 -2°C° 0 mm 5 mps 755 mmHg 87%
    21:00 -2°C° 0 mm 5 mps 755 mmHg 87%
    22:00 -3°C° 0 mm 6 mps 754 mmHg 86%
    23:00 -2°C° 0 mm 6 mps 754 mmHg 86%

    Tomorrow, 21 January, Tuesday

    Time Temperature Precipitation Wind Pressure Humidity
    00:00 -2°C° 0 mm 6 mps 753 mmHg 85%
    01:00 -2°C° 0 mm 6 mps 753 mmHg 84%
    02:00 -2°C° 0 mm 6 mps 752 mmHg 84%
    03:00 -2°C° 0 mm 6 mps 751 mmHg 85%
    04:00 -2°C° 0 mm 6 mps 750 mmHg 87%
    05:00 0°C° 0 mm 5 mps 750 mmHg 88%
    06:00 -1°C° 0 mm 6 mps 749 mmHg 89%
    07:00 +1°C° 0 mm 6 mps 748 mmHg 90%
    08:00 +1°C° 0 mm 6 mps 747 mmHg 90%
    09:00 +1°C° 0 mm 6 mps 747 mmHg 91%
    10:00 +2°C° 0 mm 6 mps 746 mmHg 91%
    11:00 +2°C° 0 mm 6 mps 746 mmHg 91%
    12:00 +2°C° 0 mm 6 mps 745 mmHg 92%
    13:00 +3°C° 0 mm 6 mps 745 mmHg 92%
    14:00 +3°C° 0 mm 7 mps 744 mmHg 92%
    15:00 +3°C° 0 mm 7 mps 743 mmHg 91%
    16:00 +3°C° 0 mm 7 mps 742 mmHg 90%
    17:00 +2°C° 0 mm 8 mps 741 mmHg 89%
    18:00 +2°C° 0 mm 8 mps 741 mmHg 89%
    19:00 +4°C° 0 mm 8 mps 741 mmHg 88%
    20:00 +4°C° 0 mm 8 mps 740 mmHg 87%
    21:00 +3°C° 0.1 mm 7 mps 740 mmHg 86%
    22:00 +3°C° 0.1 mm 7 mps 740 mmHg 84%
    23:00 +3°C° 0.1 mm 7 mps 740 mmHg 82%

    Day after tomorrow, 22 January, Wednesday

    Time Temperature Precipitation Wind Pressure Humidity
    00:00 +2°C° 0 mm 6 mps 740 mmHg 80%
    01:00 -1°C° 0 mm 6 mps 740 mmHg 78%
    02:00 -1°C° 0 mm 5 mps 740 mmHg 76%
    03:00 -1°C° 0 mm 5 mps 740 mmHg 76%
    04:00 -1°C° 0 mm 5 mps 739 mmHg 77%
    05:00 -2°C° 0 mm 5 mps 739 mmHg 78%
    06:00 -2°C° 0 mm 5 mps 738 mmHg 78%
    07:00 -1°C° 0 mm 4 mps 738 mmHg 77%
    08:00 -1°C° 0 mm 4 mps 737 mmHg 77%
    09:00 -1°C° 0 mm 5 mps 737 mmHg 75%
    10:00 -1°C° 0 mm 5 mps 736 mmHg 73%
    11:00 -1°C° 0 mm 5 mps 736 mmHg 72%
    12:00 -2°C° 0.2 mm 6 mps 736 mmHg 75%
    13:00 -2°C° 0.2 mm 6 mps 736 mmHg 79%
    14:00 -2°C° 0.2 mm 7 mps 736 mmHg 82%
    15:00 -3°C° 0.1 mm 6 mps 736 mmHg 78%
    16:00 -3°C° 0.1 mm 6 mps 736 mmHg 75%
    17:00 -4°C° 0.1 mm 5 mps 736 mmHg 71%
    18:00 -4°C° 0 mm 6 mps 736 mmHg 74%
    19:00 -4°C° 0 mm 6 mps 737 mmHg 78%
    20:00 -4°C° 0 mm 6 mps 737 mmHg 82%
    21:00 -4°C° 0 mm 6 mps 738 mmHg 80%
    22:00 -4°C° 0 mm 6 mps 738 mmHg 79%
    23:00 -4°C° 0 mm 6 mps 739 mmHg 78%

    23 January, Thursday

    Time Temperature Precipitation Wind Pressure Humidity
    00:00 -5°C° 0 mm 6 mps 739 mmHg 74%
    01:00 -5°C° 0 mm 6 mps 740 mmHg 70%
    02:00 -7°C° 0 mm 7 mps 741 mmHg 66%
    03:00 -7°C° 0 mm 7 mps 741 mmHg 64%
    04:00 -8°C° 0 mm 7 mps 742 mmHg 62%
    05:00 -8°C° 0 mm 6 mps 742 mmHg 60%
    06:00 -8°C° 0 mm 6 mps 743 mmHg 58%
    07:00 -8°C° 0 mm 6 mps 744 mmHg 57%
    08:00 -8°C° 0 mm 6 mps 745 mmHg 55%
    09:00 -6°C° 0 mm 6 mps 745 mmHg 53%
    10:00 -6°C° 0 mm 7 mps 745 mmHg 52%
    11:00 -6°C° 0 mm 7 mps 746 mmHg 50%
    12:00 -6°C° 0 mm 7 mps 746 mmHg 52%
    13:00 -4°C° 0 mm 7 mps 746 mmHg 54%
    14:00 -4°C° 0 mm 7 mps 746 mmHg 56%
    15:00 -4°C° 0 mm 6 mps 747 mmHg 58%
    16:00 -5°C° 0 mm 5 mps 747 mmHg 61%
    17:00 -4°C° 0 mm 4 mps 747 mmHg 63%
    18:00 -4°C° 0 mm 4 mps 747 mmHg 67%
    19:00 -4°C° 0 mm 3 mps 748 mmHg 72%
    20:00 -5°C° 0 mm 3 mps 748 mmHg 76%
    21:00 -4°C° 0 mm 3 mps 748 mmHg 79%
    22:00 -4°C° 0 mm 3 mps 748 mmHg 82%
    23:00 -4°C° 0 mm 3 mps 748 mmHg 84%

    24 January, Friday

    Time Temperature Precipitation Wind Pressure Humidity
    00:00 -4°C° 0 mm 4 mps 748 mmHg 83%
    01:00 -4°C° 0 mm 4 mps 747 mmHg 81%
    02:00 -4°C° 0 mm 5 mps 747 mmHg 80%
    03:00 -4°C° 0.1 mm 5 mps 746 mmHg 84%
    04:00 -4°C° 0.1 mm 5 mps 745 mmHg 88%
    05:00 -4°C° 0.1 mm 6 mps 744 mmHg 92%
    06:00 -4°C° 0.1 mm 6 mps 744 mmHg 93%
    07:00 -3°C° 0.1 mm 6 mps 743 mmHg 93%
    08:00 -3°C° 0.1 mm 6 mps 743 mmHg 94%
    09:00 -1°C° 0.1 mm 5 mps 743 mmHg 94%
    10:00 -1°C° 0.1 mm 5 mps 743 mmHg 94%
    11:00 0°C° 0.1 mm 5 mps 743 mmHg 95%
    12:00 -1°C° 0 mm 6 mps 743 mmHg 93%
    13:00 -1°C° 0 mm 6 mps 742 mmHg 91%
    14:00 +1°C° 0 mm 6 mps 742 mmHg 89%
    15:00 +1°C° 0 mm 6 mps 742 mmHg 89%
    16:00 -1°C° 0 mm 6 mps 742 mmHg 89%
    17:00 -1°C° 0 mm 6 mps 742 mmHg 89%
    18:00 -1°C° 0 mm 6 mps 742 mmHg 89%
    19:00 -1°C° 0 mm 6 mps 741 mmHg 89%
    20:00 -1°C° 0 mm 6 mps 741 mmHg 88%
    21:00 -2°C° 0 mm 6 mps 741 mmHg 90%
    22:00 -2°C° 0 mm 6 mps 741 mmHg 92%
    23:00 -2°C° 0 mm 6 mps 741 mmHg 93%

    25 January, Saturday

    Time Temperature Precipitation Wind Pressure Humidity
    00:00 -2°C° 0.1 mm 6 mps 741 mmHg 93%
    01:00 -2°C° 0.1 mm 6 mps 740 mmHg 94%
    02:00 -2°C° 0.1 mm 6 mps 740 mmHg 94%
    03:00 -1°C° 0.1 mm 5 mps 740 mmHg 94%
    04:00 -2°C° 0.1 mm 5 mps 740 mmHg 94%
    05:00 -2°C° 0.1 mm 5 mps 740 mmHg 95%
    06:00 -2°C° 0.1 mm 5 mps 740 mmHg 95%
    07:00 -2°C° 0.1 mm 5 mps 741 mmHg 94%
    08:00 -2°C° 0.1 mm 4 mps 741 mmHg 94%
    09:00 -1°C° 0 mm 4 mps 741 mmHg 93%
    10:00 -1°C° 0 mm 4 mps 741 mmHg 92%
    11:00 -1°C° 0 mm 4 mps 742 mmHg 91%
    12:00 -1°C° 0 mm 4 mps 742 mmHg 91%
    13:00 -1°C° 0 mm 4 mps 742 mmHg 91%
    14:00 0°C° 0 mm 4 mps 742 mmHg 92%
    15:00 0°C° 0 mm 3 mps 742 mmHg 92%
    16:00 0°C° 0 mm 3 mps 742 mmHg 93%
    17:00 0°C° 0 mm 3 mps 743 mmHg 93%
    18:00 0°C° 0 mm 3 mps 743 mmHg 94%
    19:00 0°C° 0 mm 3 mps 743 mmHg 94%
    20:00 0°C° 0 mm 3 mps 743 mmHg 95%
    21:00 0°C° 0 mm 3 mps 743 mmHg 94%
    22:00 0°C° 0 mm 3 mps 744 mmHg 93%
    23:00 0°C° 0 mm 3 mps 744 mmHg 92%
    Show more